Flag for U.S.A. Weather past 2 weeks in Bridgewater, Massachusetts, U.S.A.

Now
74 °F

Clear.


Feels Like: 73 °F
Forecast: 68 / 88 °F
Wind: 6 mph from North

Location: Taunton Municipal Airport

Current Time: Sep 2, 2014 at 12:16:03 AM

Latest Report: Sep 1, 2014 at 11:52 PM


Visibility: 10 mi

Pressure: 29.93 "Hg

Humidity: 88%

Dew point: 70 °F

Location of BridgewaterLocation

Historic Weather in Bridgewater — Graph

°F

Bridgewater temperature yesterday

Maximum temperature yesterday: 88 °F (at 2:52 PM)
Minimum temperature yesterday: 73 °F (at 12:52 AM)
Average temperature yesterday: 79 °F

Past Weeks' High & Low Weather Summary

 TemperatureHumidityPressure
High89 °F (Aug 25, 3:52 PM)97% (Aug 17, 11:52 PM)30.32 "Hg (Aug 17, 11:52 PM)
Low44 °F (Aug 19, 5:52 AM)34% (Aug 19, 4:52 PM)29.78 "Hg (Aug 28, 12:52 PM)
Average67 °F74%30.03 "Hg
* Reported Aug 17 10:52 PM — Sep 1 10:52 PM, Bridgewater, Weather by CustomWeather, © 2014

Note: Actual official high and low records may vary slightly from our data, if they occured in-between our weather recording intervals... More about our weather records

Advertising

Bridgewater weather history for previous 24 hours

 ConditionsComfort  
Time TempWeatherWind HumidityBarometerVisibility
10:52 PM
Sep 1
74 °FClear.5 mph88%29.94 "Hg10 mi
9:52 PM76 °FClear.3 mph85%29.94 "Hg10 mi
8:52 PM77 °FClear.6 mph82%29.93 "Hg10 mi
7:52 PM79 °FSunny.5 mph79%29.92 "Hg10 mi
6:52 PM81 °FSunny.6 mph74%29.90 "Hg10 mi
5:52 PM85 °FSunny.5 mph63%29.90 "Hg10 mi
4:52 PM88 °FSunny.8 mph57%29.90 "Hg10 mi
3:52 PM87 °FPassing clouds.9 mph59%29.91 "Hg10 mi
2:52 PM88 °FPassing clouds.9 mph57%29.92 "Hg10 mi
1:52 PM86 °FScattered clouds.8 mph59%29.93 "Hg10 mi
12:52 PM86 °FPartly sunny.6 mph59%29.94 "Hg10 mi
11:52 AM84 °FScattered clouds.7 mph61%29.96 "Hg10 mi
10:52 AM81 °FPassing clouds.No wind72%29.97 "Hg10 mi
9:52 AM78 °FScattered clouds.3 mph79%29.97 "Hg10 mi
8:52 AM76 °FLow clouds.6 mph88%29.98 "Hg7 mi
7:52 AM74 °FFog.No wind94%29.98 "Hg5 mi
6:52 AM73 °FFog.5 mph94%29.99 "Hg4 mi
5:52 AM73 °FFog.3 mph94%29.98 "Hg6 mi
4:52 AM73 °FFog.No wind94%29.96 "Hg6 mi
3:52 AM73 °FFog.3 mph94%29.96 "Hg6 mi
2:52 AM73 °FFog.5 mph94%29.96 "Hg6 mi
1:52 AM73 °FPartly cloudy.5 mph94%29.95 "Hg7 mi
12:52 AM73 °FMostly cloudy.6 mph94%29.96 "Hg9 mi
Weather by CustomWeather, © 2014

See weather overviewHow to use our weather pages